SQ2WB-13 Weather Reports


time (UTC)temp
F
wind
direction
speed
knots
gust
knots
rain 1hr
in
rain 24hr
in
rain mn
in
humidity
%
barometer
mb
20260905194501 55 249 2.6 2.6 0.00 0.15 0.00 99 1005.7
20260905193000 55 194 1.7 2.6 0.00 0.15 0.00 99 1005.7
20260905191502 55 235 1.7 2.6 0.00 0.15 0.00 99 1005.7
20260905190001 53 236 1.7 2.6 0.00 0.15 0.00 99 1005.7
20260905184501 53 203 0.9 1.7 0.00 0.15 0.00 99 1005.7
20260905183001 53 237 0.0 0.9 0.00 0.15 0.00 99 1005.7
20260905181501 53 239 0.9 0.9 0.00 0.15 0.00 99 1005.7
20260905180001 53 216 2.6 2.6 0.00 0.15 0.00 99 1005.7
20260905174501 53 228 0.9 0.9 0.00 0.15 0.00 99 1005.7
20260905173001 53 208 0.9 2.6 0.05 0.15 0.00 98 1005.7
20260905171500 53 271 1.7 4.3 0.37 0.10 0.00 94 1005.7
20260905170001 62 209 5.2 8.7 0.00 0.02 0.00 75 1004.7
20260905164502 62 196 7.8 7.8 0.00 0.02 0.00 77 1004.0
20260905163001 62 222 3.5 6.1 0.00 0.02 0.00 76 1004.0
20260905161501 62 231 2.6 8.7 0.00 0.02 0.00 76 1004.0
20260905160001 62 249 3.5 4.3 0.00 0.02 0.00 76 1004.7
20260905154500 62 210 3.5 5.2 0.00 0.02 0.00 74 1004.7
20260905153002 64 265 5.2 7.8 0.00 0.02 0.00 68 1004.7
20260905151502 66 235 5.2 5.2 0.00 0.02 0.00 68 1004.7
20260905150001 66 232 3.5 5.2 0.00 0.02 0.00 70 1004.0
20260905144502 66 216 7.8 8.7 0.00 0.02 0.00 69 1004.0
20260905143001 66 203 7.8 9.6 0.00 0.02 0.00 69 1004.0
20260905141502 66 236 5.2 5.2 0.00 0.02 0.00 73 1004.0
20260905140003 66 218 5.2 7.0 0.00 0.02 0.00 69 1004.0
20260905134503 64 186 7.8 7.8 0.00 0.02 0.00 76 1004.0
20260905133000 66 247 3.5 9.6 0.00 0.02 0.00 71 1003.7
20260905131502 66 279 5.2 10.4 0.00 0.02 0.00 71 1004.0
20260905130000 66 231 4.3 9.6 0.00 0.02 0.00 68 1003.7
20260905124502 69 278 6.1 6.1 0.00 0.02 0.00 64 1003.7
20260905123001 69 182 7.8 12.2 0.00 0.02 0.00 64 1003.7
20260905121501 68 270 9.6 16.5 0.00 0.02 0.00 64 1003.3
20260905120001 69 196 7.0 9.6 0.00 0.02 0.00 62 1003.3
20260905114501 68 211 3.5 4.3 0.00 0.02 0.00 64 1003.3
20260905113001 69 211 3.5 14.8 0.00 0.02 0.00 61 1003.3
20260905111501 66 217 2.6 7.0 0.00 0.02 0.00 65 1003.7
20260905110002 68 246 6.1 12.2 0.00 0.02 0.00 64 1003.7
20260905104502 66 259 12.2 13.9 0.00 0.02 0.00 65 1003.7
20260905103000 66 221 4.3 4.3 0.00 0.02 0.00 67 1003.7
20260905101501 66 219 3.5 4.3 0.00 0.02 0.00 65 1003.3
20260905100001 66 255 5.2 8.7 0.00 0.02 0.00 64 1003.3
20260905094501 66 227 7.8 9.6 0.00 0.02 0.00 64 1003.3
20260905093001 66 181 3.5 7.0 0.00 0.02 0.00 69 1003.3
20260905091500 66 163 7.0 13.9 0.00 0.02 0.00 67 1003.0
20260905090001 66 188 2.6 6.1 0.00 0.02 0.00 70 1003.0
20260905084501 66 315 3.5 9.6 0.00 0.02 0.00 71 1003.0
20260905083001 64 168 4.3 4.3 0.00 0.02 0.00 72 1003.0
20260905081502 64 211 5.2 7.0 0.00 0.02 0.00 72 1003.0
20260905080000 64 231 4.3 11.3 0.00 0.02 0.00 74 1002.7
20260905074502 62 225 3.5 7.0 0.00 0.02 0.00 75 1002.3
20260905073001 64 241 5.2 8.7 0.00 0.02 0.00 75 1002.3
20260905071500 64 207 7.0 12.2 0.00 0.02 0.00 77 1002.3
20260905070001 62 33 7.8 13.0 0.00 0.02 0.00 78 1002.0
20260905064501 62 161 5.2 11.3 0.00 0.02 0.00 81 1001.3
20260905063002 62 207 5.2 8.7 0.00 0.02 0.00 82 1001.3
20260905061502 60 218 5.2 7.8 0.00 0.02 0.00 85 1001.3
20260905060000 60 237 6.1 8.7 0.00 0.02 0.00 87 1001.0
20260905054502 60 230 2.6 3.5 0.00 0.02 0.00 89 1001.0
20260905053001 59 226 2.6 2.6 0.00 0.02 0.00 91 1001.0
20260905051501 59 217 4.3 4.3 0.00 0.02 0.00 90 1000.6
20260905050001 59 211 6.1 7.8 0.00 0.02 0.00 90 1000.3
20260905044502 59 224 5.2 9.6 0.00 0.02 0.00 91 1000.3
20260905043001 57 232 5.2 5.2 0.00 0.02 0.00 91 1000.3
20260905041503 59 226 3.5 3.5 0.00 0.02 0.00 89 1000.3
20260905040004 59 202 7.0 7.8 0.00 0.02 0.00 89 1000.0
20260905034503 59 227 3.5 3.5 0.00 0.02 0.00 89 1000.0
20260905033000 59 237 2.6 6.1 0.00 0.02 0.00 88 1000.0
20260905031501 59 243 6.1 6.1 0.00 0.02 0.00 86 1000.0
20260905030001 59 228 2.6 4.3 0.00 0.02 0.00 88 999.6
20260905024502 59 233 3.5 7.0 0.00 0.02 0.00 86 999.6
20260905023001 59 250 4.3 4.3 0.00 0.02 0.00 88 999.6
20260905021501 59 252 2.6 12.2 0.00 0.02 0.00 89 999.6
20260905020002 59 226 2.6 3.5 0.00 0.02 0.00 92 998.9
20260905014501 59 158 5.2 5.2 0.00 0.02 0.00 92 998.9
20260905013002 59 141 4.3 4.3 0.00 0.02 0.00 95 998.9
20260905011502 59 256 3.5 4.3 0.00 0.02 0.00 98 997.9
20260905010001 60 275 10.4 13.0 0.05 0.02 0.00 99 997.6
20260905004501 60 305 2.6 4.3 0.15 0.02 0.00 99 997.6
20260905003001 62 216 3.5 5.2 0.05 0.00 0.00 97 997.6
20260905001501 62 208 5.2 5.2 0.00 0.00 0.00 91 997.6
20260905000002 62 253 7.0 13.9 0.00 0.00 0.00 91 997.2
20260904234501 62 294 2.6 5.2 0.00 0.00 0.00 91 997.2
20260904233001 64 215 7.8 9.6 0.00 0.00 0.00 91 997.2
20260904231501 64 253 5.2 8.7 0.00 0.00 0.00 90 996.9
20260904230001 64 176 3.5 5.2 0.00 0.00 0.00 91 996.6
20260904224501 64 221 4.3 7.8 0.00 0.00 0.00 91 996.6
20260904223001 64 238 5.2 13.9 0.00 0.00 0.00 90 996.6
20260904221502 64 221 4.3 8.7 0.00 0.00 0.00 92 996.2
20260904220002 64 229 6.1 6.1 0.00 0.22 0.00 93 995.6
20260904214502 64 214 6.1 11.3 0.00 0.22 0.00 96 995.6
20260904213002 64 220 2.6 2.6 0.00 0.22 0.00 99 995.2
20260904211502 64 244 3.5 3.5 0.00 0.22 0.00 99 995.2
20260904210001 64 245 3.5 5.2 0.00 0.22 0.00 99 995.2
20260904203001 64 240 2.6 3.5 0.05 0.20 0.00 99 995.6
20260904201501 64 232 2.6 2.6 0.05 0.20 0.00 97 996.2
20260904200001 64 228 3.5 3.5 0.00 0.19 0.00 94 996.2